Weather History for KCKC - April, 2013

Change the Weather History Date:

Friday, April 5, 2013

  Actual Average Record
Temperature  
Mean Temperature 19 °F -  
Max Temperature 28 °F 38 °F 50 °F (1998)
Min Temperature 10 °F 22 °F 1 °F (2007)
Degree Days  
Heating Degree Days 46    
Moisture  
Dew Point 8 °F    
Average Humidity 56    
Maximum Humidity 73    
Minimum Humidity 34    
Precipitation  
Precipitation 0.00 in - - ()
Sea Level Pressure  
Sea Level Pressure 30.14 in    
Wind  
Wind Speed 5 mph (West)    
Max Wind Speed 12 mph    
Max Gust Speed 17 mph    
Visibility 10 miles    
Events      
Averages and records for this station are not official NWS values.
T = Trace of Precipitation, MM = Missing Value Source: NWS Daily Summary

Daily Weather History Graph

Daily Weather History Graph

Search for Another Location

Airport or City:

Trip Planner

Search our weather history database for the weather conditions in past years. The results will help you decide how hot, cold, wet, or windy it might be!

Date:

Astronomy

Apr. 05, 2013 Rise Set
Actual Time 6:31 AM CDT 7:37 PM CDT
Civil Twilight 5:59 AM CDT 8:09 PM CDT
Nautical Twilight 5:21 AM CDT 8:47 PM CDT
Astronomical Twilight 4:41 AM CDT 9:28 PM CDT
Moon 3:59 AM CDT (4/5) 2:43 PM CDT (4/5)
Length of Visible Light 14h 09m
Length of Day
13h 06m
Waning Crescent, 23% of the Moon is Illuminated
Apr 5
Waning Crescent
Apr 10
New
Apr 18
First Quarter
Apr 25
Full
May 2
Last Quarter

Hourly Weather History & Observations

Time (CDT) Temp. Windchill Dew Point Humidity Pressure Visibility Wind Dir Wind Speed Gust Speed Precip Events Conditions
12:14 AM 21.2 °F 10.9 °F 6.8 °F 54% 30.10 in 10.0 mi NNW 9.2 mph - N/A   Clear
12:33 AM 21.2 °F 13.6 °F 6.8 °F 54% 30.10 in 10.0 mi NNW 5.8 mph - N/A   Clear
12:53 AM 19.4 °F 14.3 °F 6.8 °F 58% 30.11 in 10.0 mi NNW 3.5 mph - N/A   Clear
1:14 AM 19.4 °F 12.8 °F 6.8 °F 58% 30.12 in 10.0 mi NNW 4.6 mph - N/A   Clear
1:33 AM 19.4 °F 12.8 °F 6.8 °F 58% 30.12 in 10.0 mi NW 4.6 mph - N/A   Clear
1:54 AM 17.6 °F 8.2 °F 6.8 °F 63% 30.12 in 10.0 mi NNW 6.9 mph - N/A   Clear
2:13 AM 17.6 °F 10.7 °F 6.8 °F 63% 30.12 in 10.0 mi NNW 4.6 mph - N/A   Clear
2:33 AM 15.8 °F 7.2 °F 6.8 °F 68% 30.12 in 10.0 mi NNW 5.8 mph - N/A   Clear
2:54 AM 15.8 °F 7.2 °F 6.8 °F 68% 30.13 in 10.0 mi NW 5.8 mph - N/A   Clear
3:13 AM 15.8 °F 7.2 °F 6.8 °F 68% 30.14 in 10.0 mi NNW 5.8 mph - N/A   Clear
3:33 AM 15.8 °F 7.2 °F 6.8 °F 68% 30.14 in 10.0 mi NNW 5.8 mph - N/A   Clear
3:54 AM 15.8 °F 7.2 °F 5.0 °F 62% 30.15 in 10.0 mi NNW 5.8 mph - N/A   Clear
4:13 AM 14.0 °F 5.1 °F 5.0 °F 67% 30.15 in 10.0 mi NNW 5.8 mph - N/A   Clear
4:33 AM 15.8 °F 6.1 °F 5.0 °F 62% 30.15 in 10.0 mi NNW 6.9 mph - N/A   Clear
4:54 AM 14.0 °F 5.1 °F 5.0 °F 67% 30.16 in 10.0 mi NNW 5.8 mph - N/A   Clear
5:13 AM 14.0 °F 3.9 °F 5.0 °F 67% 30.17 in 10.0 mi NNW 6.9 mph - N/A   Clear
5:33 AM 12.2 °F 2.9 °F 5.0 °F 73% 30.17 in 10.0 mi NNW 5.8 mph - N/A   Clear
5:54 AM 12.2 °F 2.9 °F 3.2 °F 67% 30.17 in 10.0 mi NNW 5.8 mph - N/A   Clear
6:13 AM 12.2 °F 4.3 °F 3.2 °F 67% 30.17 in 10.0 mi NW 4.6 mph - N/A   Clear
6:33 AM 10.4 °F 2.2 °F 3.2 °F 73% 30.18 in 10.0 mi NNW 4.6 mph - N/A   Clear
6:54 AM 10.4 °F 4.0 °F 3.2 °F 73% 30.19 in 10.0 mi NW 3.5 mph - N/A   Clear
7:13 AM 12.2 °F - 3.2 °F 67% 30.20 in 10.0 mi Calm Calm - N/A   Clear
7:33 AM 15.8 °F - 5.0 °F 62% 30.20 in 10.0 mi Calm Calm - N/A   Clear
7:54 AM 15.8 °F - 5.0 °F 62% 30.21 in 10.0 mi Calm Calm - N/A   Clear
8:13 AM 17.6 °F - 6.8 °F 63% 30.21 in 10.0 mi Calm Calm - N/A   Clear
8:33 AM 19.4 °F 10.4 °F 6.8 °F 58% 30.21 in 10.0 mi NNW 6.9 mph - N/A   Clear
8:54 AM 21.2 °F 12.6 °F 6.8 °F 54% 30.21 in 10.0 mi NNW 6.9 mph - N/A   Clear
9:13 AM 21.2 °F 12.6 °F 6.8 °F 54% 30.20 in 10.0 mi NNW 6.9 mph - N/A   Clear
9:33 AM 23.0 °F 18.4 °F 5.0 °F 46% 30.20 in 10.0 mi North 3.5 mph - N/A   Clear
9:54 AM 24.8 °F 19.1 °F 3.2 °F 40% 30.20 in 10.0 mi NW 4.6 mph - N/A   Clear
10:13 AM 24.8 °F 20.5 °F 3.2 °F 40% 30.20 in 10.0 mi North 3.5 mph - N/A   Clear
10:33 AM 26.6 °F - 3.2 °F 37% 30.20 in 10.0 mi Calm Calm - N/A   Clear
10:54 AM 26.6 °F - 3.2 °F 37% 30.20 in 10.0 mi Calm Calm - N/A   Clear
11:13 AM 28.4 °F 24.6 °F 3.2 °F 34% 30.19 in 10.0 mi South 3.5 mph - N/A   Clear
11:33 AM 28.4 °F 18.5 °F 5.0 °F 37% 30.19 in 10.0 mi South 11.5 mph - N/A   Clear
11:54 AM 26.6 °F 17.5 °F 8.6 °F 47% 30.19 in 10.0 mi SSE 9.2 mph - N/A   Clear
12:13 PM 28.4 °F 19.7 °F 10.4 °F 47% 30.18 in 10.0 mi SSE 9.2 mph - N/A   Clear
12:34 PM 28.4 °F 20.4 °F 8.6 °F 43% 30.18 in 10.0 mi South 8.1 mph - N/A   Clear
12:53 PM 26.6 °F 17.5 °F 10.4 °F 51% 30.18 in 10.0 mi SSE 9.2 mph - N/A   Clear
1:13 PM 26.6 °F 18.2 °F 10.4 °F 51% 30.17 in 10.0 mi SSE 8.1 mph - N/A   Clear
1:34 PM 26.6 °F 19.1 °F 10.4 °F 51% 30.17 in 10.0 mi SSE 6.9 mph - N/A   Clear
1:53 PM 26.6 °F 18.2 °F 10.4 °F 51% 30.16 in 10.0 mi South 8.1 mph 17.3 mph N/A   Clear
2:13 PM 26.6 °F 19.1 °F 10.4 °F 51% 30.15 in 10.0 mi South 6.9 mph - N/A   Clear
2:33 PM 26.6 °F 16.8 °F 10.4 °F 51% 30.14 in 10.0 mi South 10.4 mph - N/A   Clear
2:54 PM 26.6 °F 16.8 °F 10.4 °F 51% 30.14 in 10.0 mi South 10.4 mph - N/A   Clear
3:13 PM 26.6 °F 20.0 °F 10.4 °F 51% 30.13 in 10.0 mi South 5.8 mph - N/A   Clear
3:33 PM 26.6 °F 19.1 °F 10.4 °F 51% 30.13 in 10.0 mi South 6.9 mph - N/A   Clear
3:54 PM 26.6 °F 20.0 °F 12.2 °F 55% 30.13 in 10.0 mi South 5.8 mph - N/A   Clear
4:13 PM 26.6 °F 20.0 °F 10.4 °F 51% 30.13 in 10.0 mi South 5.8 mph - N/A   Clear
4:33 PM 26.6 °F 18.2 °F 12.2 °F 55% 30.12 in 10.0 mi South 8.1 mph - N/A   Clear
4:54 PM 26.6 °F 18.2 °F 10.4 °F 51% 30.12 in 10.0 mi SSW 8.1 mph - N/A   Clear
5:13 PM 24.8 °F 17.9 °F 8.6 °F 50% 30.12 in 10.0 mi South 5.8 mph - N/A   Clear
5:33 PM 24.8 °F 19.1 °F 10.4 °F 54% 30.12 in 10.0 mi South 4.6 mph - N/A   Clear
5:54 PM 24.8 °F 20.5 °F 10.4 °F 54% 30.12 in 10.0 mi South 3.5 mph - N/A   Clear
6:13 PM 24.8 °F - 10.4 °F 54% 30.11 in 10.0 mi Calm Calm - N/A   Clear
6:33 PM 24.8 °F - 10.4 °F 54% 30.11 in 10.0 mi Calm Calm - N/A   Clear
6:54 PM 24.8 °F - 8.6 °F 50% 30.10 in 10.0 mi Calm Calm - N/A   Clear
7:13 PM 24.8 °F - 8.6 °F 50% 30.09 in 10.0 mi Calm Calm - N/A   Clear
7:33 PM 24.8 °F - 8.6 °F 50% 30.09 in 10.0 mi Calm Calm - N/A   Clear
7:54 PM 24.8 °F - 10.4 °F 54% 30.08 in 10.0 mi Calm Calm - N/A   Clear
8:13 PM 24.8 °F - 10.4 °F 54% 30.07 in 10.0 mi Calm Calm - N/A   Clear
8:34 PM 24.8 °F - 10.4 °F 54% 30.07 in 10.0 mi Calm Calm - N/A   Clear
8:53 PM 24.8 °F - 10.4 °F 54% 30.07 in 10.0 mi Calm Calm - N/A   Clear
9:13 PM 24.8 °F - 8.6 °F 50% 30.07 in 10.0 mi Calm Calm - N/A   Clear
9:34 PM 24.8 °F 20.5 °F 8.6 °F 50% 30.07 in 10.0 mi ESE 3.5 mph - N/A   Scattered Clouds
9:53 PM 24.8 °F 20.5 °F 6.8 °F 46% 30.06 in 10.0 mi SE 3.5 mph - N/A   Scattered Clouds
10:13 PM 24.8 °F 17.9 °F 10.4 °F 54% 30.06 in 10.0 mi ESE 5.8 mph - N/A   Scattered Clouds
10:33 PM 23.0 °F 18.4 °F 10.4 °F 59% 30.06 in 10.0 mi ESE 3.5 mph - N/A   Overcast
10:53 PM 23.0 °F - 10.4 °F 59% 30.05 in 10.0 mi Calm Calm - N/A   Overcast
11:14 PM 23.0 °F - 10.4 °F 59% 30.05 in 10.0 mi Calm Calm - N/A   Overcast
11:33 PM 21.2 °F 14.9 °F 12.2 °F 68% 30.05 in 10.0 mi East 4.6 mph - N/A   Overcast
11:53 PM 21.2 °F 16.4 °F 12.2 °F 68% 30.04 in 10.0 mi East 3.5 mph - N/A   Overcast